CW4498 Weather Reports


time (UTC)temp
C
wind
direction
speed
KPH
gust
KPH
rain 1hr
cm
rain 24hr
cm
rain mn
cm
humidity
%
barometer
mb
20260903204541 28 115 6.4 17.7 0.00 0.00 0.00 18 1014.2
20260903203040 28 119 1.6 8.0 0.00 0.00 0.00 19 1014.4
20260903201540 28 71 4.8 16.1 0.00 0.00 0.00 19 1014.4
20260903200046 28 165 6.4 14.5 0.00 0.00 0.00 19 1014.6
20260903194546 27 96 0.0 11.3 0.00 0.00 0.00 21 1014.7
20260903193038 27 123 6.4 12.9 0.00 0.00 0.00 20 1015.0
20260903191553 27 122 3.2 12.9 0.00 0.00 0.00 21 1015.0
20260903190038 28 83 4.8 12.9 0.00 0.00 0.00 19 1015.1
20260903184535 27 123 3.2 12.9 0.00 0.00 0.00 21 1015.3
20260903183049 27 132 1.6 12.9 0.00 0.00 0.00 22 1015.6
20260903181532 27 101 0.0 8.0 0.00 0.00 0.00 23 1015.7
20260903180036 27 123 1.6 4.8 0.00 0.00 0.00 24 1016.0
20260903174531 27 113 1.6 14.5 0.00 0.00 0.00 23 1016.2
20260903173030 27 133 0.0 6.4 0.00 0.00 0.00 24 1016.2
20260903171528 26 260 1.6 6.4 0.00 0.00 0.00 25 1016.3
20260903170025 25 122 3.2 9.7 0.00 0.00 0.00 27 1016.3
20260903164524 25 104 3.2 9.7 0.00 0.00 0.00 27 1016.4
20260903163021 24 128 4.8 11.3 0.00 0.00 0.00 28 1016.4
20260903161531 24 105 1.6 12.9 0.00 0.00 0.00 28 1016.5
20260903160022 24 119 3.2 9.7 0.00 0.00 0.00 28 1016.5
20260903154517 23 90 3.2 11.3 0.00 0.00 0.00 30 1016.6
20260903153015 23 109 4.8 9.7 0.00 0.00 0.00 30 1016.6
20260903151515 22 113 1.6 9.7 0.00 0.00 0.00 31 1016.7
20260903150014 22 135 0.0 8.0 0.00 0.00 0.00 32 1016.8
20260903144512 21 105 1.6 9.7 0.00 0.00 0.00 34 1016.8
20260903143012 20 219 0.0 3.2 0.00 0.00 0.00 36 1016.7
20260903141511 19 120 0.0 3.2 0.00 0.00 0.00 38 1016.7
20260903140014 18 110 0.0 3.2 0.00 0.00 0.00 38 1016.6
20260903134508 18 95 0.0 4.8 0.00 0.00 0.00 38 1016.4
20260903133008 18 144 0.0 3.2 0.00 0.00 0.00 38 1016.1
20260903131512 18 116 1.6 3.2 0.00 0.00 0.00 38 1015.9
20260903130007 17 264 1.6 4.8 0.00 0.00 0.00 39 1015.6
20260903124506 17 118 0.0 0.0 0.00 0.00 0.00 38 1015.2
20260903123006 19 315 0.0 3.2 0.00 0.00 0.00 34 1015.0
20260903121510 20 128 1.6 16.1 0.00 0.00 0.00 33 1015.1
20260903120007 20 283 4.8 9.7 0.00 0.00 0.00 33 1014.7
20260903114504 20 196 3.2 14.5 0.00 0.00 0.00 33 1014.9
20260903113004 20 246 4.8 16.1 0.00 0.00 0.00 32 1015.0
20260903111506 20 148 4.8 20.9 0.00 0.00 0.00 32 1014.7
20260903110003 19 131 4.8 17.7 0.00 0.00 0.00 32 1014.7
20260903104602 17 71 4.8 12.9 0.00 0.00 0.00 37 1014.9
20260903103001 16 272 0.0 3.2 0.00 0.00 0.00 40 1014.8
20260903101559 16 117 0.0 1.6 0.00 0.00 0.00 41 1014.8
20260903100058 16 254 0.0 3.2 0.00 0.00 0.00 40 1014.6
20260903094607 17 119 0.0 3.2 0.00 0.00 0.00 40 1014.7
20260903093054 17 109 0.0 6.4 0.00 0.00 0.00 39 1014.7
20260903091557 18 271 0.0 3.2 0.00 0.00 0.00 39 1014.7
20260903090050 18 140 0.0 4.8 0.00 0.00 0.00 39 1014.9
20260903084548 18 103 4.8 16.1 0.00 0.00 0.00 38 1014.5
20260903083044 19 118 3.2 14.5 0.00 0.00 0.00 37 1014.4
20260903081547 20 128 1.6 9.7 0.00 0.00 0.00 34 1014.4
20260903080042 20 5 1.6 11.3 0.00 0.00 0.00 34 1014.7
20260903074543 21 43 6.4 19.3 0.00 0.00 0.00 33 1014.8
20260903073047 21 302 4.8 12.9 0.00 0.00 0.00 33 1014.9
20260903071540 21 198 6.4 22.5 0.00 0.00 0.00 32 1014.8
20260903070039 20 127 4.8 17.7 0.00 0.00 0.00 34 1014.9
20260903064536 20 125 1.6 11.3 0.00 0.00 0.00 35 1014.9
20260903063034 21 317 4.8 14.5 0.00 0.00 0.00 31 1015.4
20260903061534 22 256 4.8 25.7 0.00 0.00 0.00 31 1015.5
20260903060029 22 315 4.8 17.7 0.00 0.00 0.00 32 1015.6
20260903054530 20 276 4.8 11.3 0.00 0.00 0.00 36 1015.7
20260903053029 20 24 1.6 16.1 0.00 0.00 0.00 35 1015.6
20260903051528 19 36 0.0 4.8 0.00 0.00 0.00 41 1015.7
20260903050026 18 327 0.0 4.8 0.00 0.00 0.00 44 1015.8
20260903044527 18 336 0.0 4.8 0.00 0.00 0.00 44 1015.8
20260903043026 19 32 3.2 6.4 0.00 0.00 0.00 43 1015.9
20260903041526 20 27 1.6 6.4 0.00 0.00 0.00 42 1016.0
20260903040028 20 26 1.6 3.2 0.00 0.00 0.00 41 1016.0
20260903034525 20 26 1.6 6.4 0.00 0.00 0.00 39 1016.1
20260903033024 21 17 1.6 4.8 0.00 0.00 0.00 35 1016.0
20260903031524 22 153 0.0 4.8 0.00 0.00 0.00 29 1016.0
20260903030029 23 276 1.6 6.4 0.00 0.00 0.00 28 1015.3
20260903024523 23 261 3.2 8.0 0.00 0.00 0.00 27 1015.2
20260903023022 23 267 3.2 11.3 0.00 0.00 0.00 27 1015.1
20260903021523 23 242 3.2 6.4 0.00 0.00 0.00 28 1014.9
20260903020035 22 223 1.6 8.0 0.00 0.00 0.00 28 1014.5
20260903014524 22 257 0.0 3.2 0.00 0.00 0.00 29 1014.5
20260903013020 22 268 0.0 3.2 0.00 0.00 0.00 30 1014.4
20260903011521 23 136 0.0 1.6 0.00 0.00 0.00 29 1014.4
20260903010020 24 125 1.6 4.8 0.00 0.00 0.00 27 1014.5
20260903004519 25 132 1.6 8.0 0.00 0.00 0.00 25 1014.5
20260903003019 25 119 0.0 3.2 0.00 0.00 0.00 25 1014.5
20260903001519 26 113 1.6 11.3 0.00 0.00 0.00 24 1014.1
20260903000018 26 119 3.2 11.3 0.00 0.00 0.00 23 1014.2
20260902234517 26 115 1.6 9.7 0.00 0.00 0.00 25 1014.4
20260902233017 26 132 1.6 6.4 0.00 0.00 0.00 25 1014.5
20260902231516 26 115 0.0 4.8 0.00 0.00 0.00 25 1014.5
20260902230017 26 116 1.6 8.0 0.00 0.00 0.00 25 1014.5
20260902224516 26 140 0.0 8.0 0.00 0.00 0.00 25 1014.6
20260902223021 26 126 1.6 9.7 0.00 0.00 0.00 25 1014.8
20260902221519 26 132 1.6 9.7 0.00 0.00 0.00 25 1014.9
20260902220012 27 192 1.6 12.9 0.00 0.00 0.00 24 1015.1
20260902214512 27 153 3.2 12.9 0.00 0.00 0.00 24 1015.2
20260902213011 27 136 6.4 11.3 0.00 0.00 0.00 24 1015.3
20260902211517 27 104 6.4 17.7 0.00 0.00 0.00 25 1015.6
20260902210010 27 119 6.4 19.3 0.00 0.00 0.00 25 1015.9